Regional Weather Roundup
Issued by NWS

Home | Current Version | Previous Version | Text Only | Print | Product List | Glossary Off
Versions: 1 2 3 4 5 6 7 8 9 10 11 12 13 14 15 16 17 18 19 20 21 22 23 24 25 26 27 28 29 30 31 32 33 34 35 36 37 38 39 40 41 42 43 44 45 46 47 48 49 50

000
ASUS45 KBOU 030007
RWRCO

WEATHER ROUNDUP FOR COLORADO
NATIONAL WEATHER SERVICE DENVER/BOULDER CO
500 PM MST FRI DEC 02 2016

NOTE: "FAIR" INDICATES FEW OR NO CLOUDS BELOW 12000 FEET WITH NO
SIGNIFICANT WEATHER AND/OR OBSTRUCTIONS TO VISIBILITY.

COZ001>005-013-030-031-030100-
...NORTHWEST COLORADO...

CITY           SKY/WX    TMP DP  RH WIND       PRES   REMARKS
CRAIG          CLOUDY    24  15  68 W5        30.16R WCI  18
HAYDEN         CLOUDY    21  12  68 SW5       30.13R WCI  15
MEEKER         MOCLDY    22  15  75 N10       30.13R WCI  11
MOUNT WERNER   NOT AVBL
STEAMBOAT SPGS CLOUDY    19  15  85 CALM      30.12R
WALDEN           N/A     18  12  79 NW8       30.06R WCI   7
$$

COZ006>008-011-030100-
...WEST CENTRAL VALLEYS...

CITY           SKY/WX    TMP DP  RH WIND       PRES   REMARKS
GRAND JUNCTION CLOUDY    36  24  62 NW6       30.11R
MONTROSE       CLOUDY    31  20  63 NW7       30.11R WCI  24
EAGLE          CLOUDY    30  19  64 NE5       30.09R WCI  25
RIFLE          CLOUDY    31  20  63 NW18      30.12R WCI  19
DELTA          NOT AVBL
NUCLA          CLOUDY    34  23  64 N5        30.10R WCI  30
$$

COZ017>023-064>068-030100-
...SOUTHWEST COLORADO...

CITY           SKY/WX    TMP DP  RH WIND       PRES   REMARKS
DURANGO        CLOUDY    34  23  64 E7        30.01R WCI  28
CORTEZ         CLOUDY    33  24  69 SW8       30.02R WCI  26
PAGOSA SPRINGS LGT SNOW  32  27  83 CALM      30.02S
TELLURIDE      CLOUDY    23  17  77 W7        30.02R WCI  15
WOLF CREEK PAS SNOW      14  14 100 SW6       30.04S VSB 1/4 WCI   5
$$

COZ009-010-012-014-032>034-037-058>063-030100-
...CENTRAL COLORADO...

CITY           SKY/WX    TMP DP  RH WIND       PRES   REMARKS
ASPEN          LGT SNOW  24  20  84 N3        30.03R FOG
BUENA VISTA    FLURRIES  19  16  88 SE3       30.09S
COPPER MTN     LGT SNOW  14   7  73 MISG      29.98R
BERTHOUD PASS  CLOUDY     3  -9  55 SE10      29.97R WCI -12
COTTONWOOD PAS LGT SNOW  18  14  86 CALM      30.04R VSB 1
GUNNISON       FAIR      26  17  68 W5        30.03R WCI  20
KREMMLING      LGT SNOW  28  25  86 CALM      30.07R
LEADVILLE      CLOUDY    11   9  92 SW6       30.00R WCI   1
MONARCH PASS     N/A     10   7  85 CALM      30.10R
SALIDA         CLOUDY    23  21  92 CALM      30.18R
SUNLIGHT       LGT SNOW N/A N/A N/A CALM      30.04S
WILKERSON PASS LGT SNOW  10   9  92 S5        30.04R WCI   2
$$

COZ069>075-030100-
...SAN LUIS VALLEY/SANGRE DE CRISTO MOUNTAINS...

CITY           SKY/WX    TMP DP  RH WIND       PRES   REMARKS
ALAMOSA        CLOUDY    23  20  88 NW5       30.05S WCI  17
LA VETA PASS   LGT SNOW  16  12  86 S12       30.03S VSB 1   WCI   3
SAGUACHE       FLURRIES  25  21  86 S3        30.06R
$$

COZ035-036-038>040-030100-
...NORTHERN COLORADO FRONT RANGE...

CITY           SKY/WX    TMP DP  RH WIND       PRES   REMARKS
DENVER INTL AP CLOUDY    28  21  75 E6        30.15R WCI  22
DMNS CITY PARK   N/A     31  21  68 E8        30.15S WCI  23
AURORA         PTCLDY    30  18  60 SE9       30.15R WCI  22
FRONT RANGE AP CLOUDY    30  25  80 NE3       30.16
ERIE MUNI ARPT CLOUDY    31  26  82 CALM      30.17S
BOULDER MUN AP CLOUDY    30  27  86 CALM      30.16S
CENTENNIAL     MOCLDY    28  23  81 W3        30.14R
BROOMFIELD     CLOUDY    30  27  86 NE5       30.16R WCI  25
FORT COLLINS   FAIR      28  21  74 CALM      30.18S
LONGMONT       CLOUDY    31  28  85 N3        30.19S
$$

COZ041-046-047-076>085-087-088-030100-
...PIKES PEAK/PALMER DIVIDE AND SOUTHERN FOOTHILLS...

CITY           SKY/WX    TMP DP  RH WIND       PRES   REMARKS
COLO. SPRINGS  FLURRIES  27  18  69 SE9       30.15S WCI  18
A. F. ACADEMY  MIX PCPN  23  20  85 S8        30.12S WCI  14
SCHRIEVER AFB  NOT AVBL
ELLICOTT       CLOUDY   N/A N/A N/A S10       30.14S
FALCON         FLURRIES  24  17  75 S13       30.14S WCI  12
FORT CARSON    CLOUDY    28  17  64 SE6       30.14S WCI  22
LIMON          CLOUDY    28  21  75 SE7       30.18R WCI  21
MONUMENT HILL  FAIR      19  16  86 S6        30.13R WCI  11
TRINIDAD       CLOUDY    34  17  50 SE12      30.13R WCI  25
$$

COZ042>045-048>051-090-091-030100-
...NORTHEAST COLORADO...

CITY           SKY/WX    TMP DP  RH WIND       PRES   REMARKS
GREELEY ARPT   FAIR      30  21  69 E3        30.19S
AKRON          CLOUDY    32  18  56 SE6       30.18S WCI  26
BURLINGTON     CLOUDY    38  14  37 E3        30.21R
WRAY           NOT AVBL
STERLING       CLOUDY    34  23  64 CALM      30.20R
HOLYOKE        FAIR      36  21  55 CALM      30.21S
FORT MORGAN    CLOUDY    31  19  60 CALM      30.20R
$$

COZ086-089-092>099-030100-
...SOUTHEAST COLORADO...

CITY           SKY/WX    TMP DP  RH WIND       PRES   REMARKS
PUEBLO         CLOUDY    31  18  58 NW3       30.17S
LA JUNTA       FAIR      35  14  42 E3        30.18S
LAMAR          MIX PCPN  37  13  37 E5        30.18S
SPRINGFIELD      N/A     37  12  35 E5        30.17R
$$



USA.gov is the U.S. government's official web portal to all federal, state and local government web resources and services.